When you browse on this site, cookies collect data to enhance your experience and personalize the content and advertising you see.
Visit our Privacy Policy to learn more. By continuing to use the site, you agree to this use of cookies and data.
  • In Hungary
  • List of Countries
  • For 7 days
  • Water Temperature
  • Satellite Maps
  • Weather Map
  • News
  • Weather Widgets
  • user-avatar
    Login

    Hourly Weather Chandrapur

    Today, 17 January, Thursday

    Time Temperature Precipitation Wind Pressure Humidity
    00:00 +19°C° 0 mm 1 mps 745 mmHg 36%
    01:00 +18°C° 0 mm 1 mps 745 mmHg 37%
    02:00 +18°C° 0 mm 1 mps 745 mmHg 37%
    03:00 +16°C° 0 mm 1 mps 745 mmHg 38%
    04:00 +16°C° 0 mm 1 mps 745 mmHg 38%
    05:00 +15°C° 0 mm 1 mps 745 mmHg 39%
    06:00 +18°C° 0 mm 1 mps 745 mmHg 37%
    07:00 +19°C° 0 mm 1 mps 745 mmHg 36%
    08:00 +20°C° 0 mm 1 mps 746 mmHg 34%
    09:00 +23°C° 0 mm 1 mps 746 mmHg 30%
    10:00 +26°C° 0 mm 1 mps 746 mmHg 26%
    11:00 +29°C° 0 mm 1 mps 746 mmHg 22%
    12:00 +30°C° 0 mm 1 mps 745 mmHg 20%
    13:00 +31°C° 0 mm 1 mps 744 mmHg 19%
    14:00 +32°C° 0 mm 1 mps 744 mmHg 17%
    15:00 +30°C° 0 mm 1 mps 743 mmHg 20%
    16:00 +29°C° 0 mm 1 mps 743 mmHg 22%
    17:00 +27°C° 0 mm 1 mps 743 mmHg 25%
    18:00 +26°C° 0 mm 1 mps 744 mmHg 26%
    19:00 +25°C° 0 mm 1 mps 744 mmHg 27%
    20:00 +23°C° 0 mm 1 mps 745 mmHg 27%
    21:00 +23°C° 0 mm 1 mps 745 mmHg 28%
    22:00 +20°C° 0 mm 0 mps 745 mmHg 29%
    23:00 +20°C° 0 mm 0 mps 745 mmHg 30%

    Tomorrow, 18 January, Friday

    Time Temperature Precipitation Wind Pressure Humidity
    00:00 +21°C° 0 mm 1 mps 745 mmHg 31%
    01:00 +21°C° 0 mm 1 mps 745 mmHg 32%
    02:00 +20°C° 0 mm 1 mps 744 mmHg 33%
    03:00 +19°C° 0 mm 1 mps 744 mmHg 34%
    04:00 +19°C° 0 mm 1 mps 744 mmHg 35%
    05:00 +18°C° 0 mm 1 mps 744 mmHg 37%
    06:00 +19°C° 0 mm 1 mps 745 mmHg 36%
    07:00 +20°C° 0 mm 1 mps 746 mmHg 35%
    08:00 +21°C° 0 mm 1 mps 747 mmHg 34%
    09:00 +24°C° 0 mm 1 mps 747 mmHg 30%
    10:00 +26°C° 0 mm 1 mps 747 mmHg 26%
    11:00 +29°C° 0 mm 1 mps 747 mmHg 22%
    12:00 +30°C° 0 mm 1 mps 746 mmHg 21%
    13:00 +31°C° 0 mm 1 mps 745 mmHg 20%
    14:00 +32°C° 0 mm 1 mps 744 mmHg 19%
    15:00 +31°C° 0 mm 1 mps 744 mmHg 21%
    16:00 +29°C° 0 mm 1 mps 744 mmHg 24%
    17:00 +28°C° 0 mm 1 mps 744 mmHg 27%
    18:00 +27°C° 0 mm 1 mps 744 mmHg 28%
    19:00 +25°C° 0 mm 1 mps 745 mmHg 29%
    20:00 +24°C° 0 mm 1 mps 745 mmHg 30%
    21:00 +23°C° 0 mm 1 mps 745 mmHg 30%
    22:00 +23°C° 0 mm 1 mps 745 mmHg 31%
    23:00 +22°C° 0 mm 1 mps 745 mmHg 32%

    Day after tomorrow, 19 January, Saturday

    Time Temperature Precipitation Wind Pressure Humidity
    00:00 +22°C° 0 mm 1 mps 745 mmHg 33%
    01:00 +21°C° 0 mm 1 mps 745 mmHg 34%
    02:00 +19°C° 0 mm 2 mps 745 mmHg 36%
    03:00 +18°C° 0 mm 2 mps 745 mmHg 36%
    04:00 +18°C° 0 mm 2 mps 745 mmHg 37%
    05:00 +17°C° 0 mm 2 mps 745 mmHg 38%
    06:00 +18°C° 0 mm 2 mps 746 mmHg 37%
    07:00 +19°C° 0 mm 2 mps 746 mmHg 36%
    08:00 +20°C° 0 mm 2 mps 747 mmHg 36%
    09:00 +24°C° 0 mm 2 mps 747 mmHg 32%
    10:00 +26°C° 0 mm 2 mps 747 mmHg 28%
    11:00 +29°C° 0 mm 2 mps 746 mmHg 24%
    12:00 +30°C° 0 mm 2 mps 746 mmHg 22%
    13:00 +31°C° 0 mm 2 mps 745 mmHg 20%
    14:00 +32°C° 0 mm 1 mps 744 mmHg 18%
    15:00 +31°C° 0 mm 1 mps 744 mmHg 20%
    16:00 +30°C° 0 mm 1 mps 744 mmHg 23%
    17:00 +28°C° 0 mm 1 mps 744 mmHg 25%
    18:00 +27°C° 0 mm 1 mps 744 mmHg 26%
    19:00 +26°C° 0 mm 1 mps 745 mmHg 26%
    20:00 +24°C° 0 mm 1 mps 745 mmHg 27%
    21:00 +23°C° 0 mm 1 mps 745 mmHg 27%
    22:00 +23°C° 0 mm 1 mps 745 mmHg 27%
    23:00 +22°C° 0 mm 1 mps 745 mmHg 28%

    20 January, Sunday

    Time Temperature Precipitation Wind Pressure Humidity
    00:00 +21°C° 0 mm 1 mps 745 mmHg 28%
    01:00 +21°C° 0 mm 1 mps 744 mmHg 29%
    02:00 +20°C° 0 mm 1 mps 744 mmHg 30%
    03:00 +19°C° 0 mm 1 mps 744 mmHg 31%
    04:00 +19°C° 0 mm 1 mps 744 mmHg 33%
    05:00 +18°C° 0 mm 1 mps 744 mmHg 34%
    06:00 +19°C° 0 mm 1 mps 745 mmHg 34%
    07:00 +20°C° 0 mm 1 mps 746 mmHg 33%
    08:00 +21°C° 0 mm 1 mps 747 mmHg 33%
    09:00 +24°C° 0 mm 1 mps 747 mmHg 29%
    10:00 +27°C° 0 mm 1 mps 747 mmHg 26%
    11:00 +29°C° 0 mm 2 mps 747 mmHg 22%
    12:00 +30°C° 0 mm 1 mps 746 mmHg 21%
    13:00 +32°C° 0 mm 1 mps 745 mmHg 19%
    14:00 +33°C° 0 mm 1 mps 744 mmHg 17%
    15:00 +31°C° 0 mm 1 mps 744 mmHg 20%
    16:00 +30°C° 0 mm 1 mps 744 mmHg 22%
    17:00 +29°C° 0 mm 1 mps 744 mmHg 25%
    18:00 +27°C° 0 mm 1 mps 745 mmHg 25%
    19:00 +26°C° 0 mm 1 mps 745 mmHg 26%
    20:00 +22°C° 0 mm 0 mps 746 mmHg 27%
    21:00 +22°C° 0 mm 0 mps 746 mmHg 28%
    22:00 +21°C° 0 mm 0 mps 745 mmHg 28%
    23:00 +21°C° 0 mm 0 mps 745 mmHg 29%

    21 January, Monday

    Time Temperature Precipitation Wind Pressure Humidity
    00:00 +22°C° 0 mm 1 mps 745 mmHg 30%
    01:00 +21°C° 0 mm 1 mps 745 mmHg 32%
    02:00 +21°C° 0 mm 1 mps 744 mmHg 33%
    03:00 +20°C° 0 mm 1 mps 744 mmHg 34%
    04:00 +20°C° 0 mm 1 mps 744 mmHg 35%
    05:00 +19°C° 0 mm 1 mps 744 mmHg 37%
    06:00 +20°C° 0 mm 1 mps 745 mmHg 36%
    07:00 +22°C° 0 mm 1 mps 746 mmHg 36%
    08:00 +23°C° 0 mm 1 mps 747 mmHg 36%
    09:00 +25°C° 0 mm 2 mps 746 mmHg 34%
    10:00 +28°C° 0 mm 2 mps 746 mmHg 32%
    11:00 +30°C° 0 mm 3 mps 746 mmHg 30%
    12:00 +31°C° 0 mm 2 mps 745 mmHg 28%
    13:00 +32°C° 0 mm 2 mps 744 mmHg 26%
    14:00 +34°C° 0 mm 2 mps 743 mmHg 24%
    15:00 +32°C° 0 mm 2 mps 743 mmHg 26%
    16:00 +31°C° 0 mm 2 mps 743 mmHg 29%
    17:00 +30°C° 0 mm 1 mps 743 mmHg 31%
    18:00 +29°C° 0 mm 1 mps 743 mmHg 33%
    19:00 +27°C° 0 mm 2 mps 744 mmHg 35%
    20:00 +26°C° 0 mm 2 mps 744 mmHg 37%
    21:00 +25°C° 0 mm 2 mps 744 mmHg 38%
    22:00 +25°C° 0 mm 2 mps 744 mmHg 39%
    23:00 +24°C° 0 mm 2 mps 744 mmHg 40%

    22 January, Tuesday

    Time Temperature Precipitation Wind Pressure Humidity
    00:00 +24°C° 0 mm 2 mps 744 mmHg 42%
    01:00 +23°C° 0 mm 2 mps 743 mmHg 44%
    02:00 +21°C° 0 mm 2 mps 743 mmHg 47%
    03:00 +21°C° 0 mm 2 mps 743 mmHg 50%
    04:00 +20°C° 0 mm 2 mps 743 mmHg 52%
    05:00 +19°C° 0 mm 3 mps 743 mmHg 55%
    06:00 +20°C° 0 mm 3 mps 744 mmHg 54%
    07:00 +21°C° 0 mm 3 mps 745 mmHg 54%
    08:00 +22°C° 0 mm 4 mps 746 mmHg 53%
    09:00 +26°C° 0 mm 4 mps 746 mmHg 46%
    10:00 +28°C° 0 mm 3 mps 746 mmHg 39%
    11:00 +31°C° 0 mm 3 mps 745 mmHg 33%
    12:00 +33°C° 0 mm 3 mps 745 mmHg 29%
    13:00 +34°C° 0 mm 3 mps 744 mmHg 26%
    14:00 +35°C° 0 mm 2 mps 743 mmHg 23%
    15:00 +34°C° 0 mm 2 mps 743 mmHg 25%
    16:00 +32°C° 0 mm 1 mps 743 mmHg 26%
    17:00 +31°C° 0 mm 1 mps 742 mmHg 28%
    18:00 +29°C° 0 mm 1 mps 743 mmHg 30%
    19:00 +28°C° 0 mm 1 mps 744 mmHg 31%
    20:00 +26°C° 0 mm 1 mps 744 mmHg 33%
    21:00 +26°C° 0 mm 1 mps 744 mmHg 34%
    22:00 +25°C° 0 mm 2 mps 744 mmHg 35%
    23:00 +24°C° 0 mm 2 mps 744 mmHg 36%
    Show more